User: anonymous   Login
Location: Unspecified
(0.0000°N, 0.0000°E)
Time: 01:08:00
(UTC+00:00)
Language:

STARLINK-32543 - Orbit

View from above orbital plane
View from above orbital plane
View from above satellite
View from above satellite

Ground track
Ground track

The orbit is defined by the following mean orbital elements,

1 63364U          26145.45862666 +.00000000 +00000-0 +68915-3 0 00008
2 63364  53.1610  53.0129 0001390  97.5630 262.5528 15.30209077    07
Epoch (UTC): 25 May 2026 11:00:25
Eccentricity: 0.0001390
inclination: 53.1610°
perigee height: 474 km
apogee height: 476 km
right ascension of ascending node: 53.0129°
argument of perigee: 97.5630°
revolutions per day: 15.30209077
mean anomaly at epoch: 262.5528°

The dashed part of the orbit path shows where the satellite is in the earth's shadow,  

DLR